HJS-6B

导读

HJS-6B是中国于2025年4月1日发射的卫星,作为中国航天在该年度的重要发射任务成果,它将依托定制化的星载设备,在对应领域开展空间探测、数据服务等相关工作。该卫星的成功入轨,进一步完善了中国相关卫星星座布局,为后续空间科学研究与应用拓展提供了有力支撑。

基本信息
目录编号:
63429
目录名称:
HJS-6B
国际标识:
2025-067B
轨道中心:
EARTH
卫星名称:
HJS-6B
卫星全名:
HJS-6B
卫星状态:
在轨 (已飞行522 天)
发射日期:
2025-04-01 UTC
国别 :
中国 (CN)
星等 :
--
轨道信息
数据来源 国际轨道数据 AOE轨道数据
星历时间 2026-09-05T14:31:01+0800
12小时前
查看轨道信息
2026-09-03T18:00:00+0800
2天前
查看轨道信息
半长轴 6886.204km 6886.168km
偏心率 0.0008557 0.0008416
轨道倾角 54.995° 54.994°
近地点辐角 153.178° 149.310°
升交点赤经 37.666° 45.770°
平近点角 206.969° 141.379°
近地点 502.174km 502.235km
远地点 513.96km 513.827km
周期 94.783分钟 94.782分钟
每日圈数 15.19263 15.192749
详细信息
使用方式:
暂无
2D轨道图
3D轨道图
轨道高度分析图
轨道倾角分析图
轨道综合分析图
查看轨道综合分析图